STARLINK-1034 (44757 NORAD) Tracking and Keplerian Element Data

This shows tracking and keplerian element data for the satellite.

Feedback or suggestion? Click here.




ElementValue
Catalog44757
NameSTARLINK-1034
Epoch Orbit1064
Epoch Day18.25002315
Epoch Year2020
RAAN195.8125
Inclination53.0067
Eccentricity0.0001396
Argument of Perigee81.165
Mean Anonmoly210.1976
Mean Motion15.42725198
Decay Rate-0.00102736
L11 44757U 19074AW 20018.25002315 -.00102736 00000-0 -23379-2 0 9994
L22 44757 53.0067 195.8125 0001396 81.1650 210.1976 15.42725198 10642

Live tracking and technical data element details for STARLINK-1034 (NORAD 44757). STARLINK-1034 can be tracked NOW for your location showing map with azimuth and elevation plus other details from your city location.

Track the satellite on the map from your city or location and see movement details for azimuth, elevation, latitude, longitude, range, height, and movement on the map or in text.







IsCatalogInMostPopularTable: catalog: 44757, numindb: 8
Update: records affected: 1



GetName: 44757 STARLINK-1034

Hit Count: updated at: Sat, 18 Jan 2020 17:20:50 GMT